• MPC Preparation (Info)

  • MPEC 2018-X127: 2014 NV65

    The following Minor Planet Electronic Circular may be linked-to from your own Web pages, but must not otherwise be redistributed electronically.

    A form allowing access to any MPEC is at the bottom of this page.


    Read MPEC 2018-X126 Read MPEC 2018-X128


    M.P.E.C. 2018-X127                               Issued 2018 Dec. 15, 17:13 UT
    
         The Minor Planet Electronic Circulars contain information on unusual
             minor planets and routine data on comets.  They are published
        on behalf of Division F of the International Astronomical Union by the
              Minor Planet Center, Smithsonian Astrophysical Observatory,
                              Cambridge, MA 02138, U.S.A.
    
                 Prepared using the Tamkin Foundation Computer Network
    
                                  MPC@CFA.HARVARD.EDU
                URL https://www.minorplanetcenter.net/    ISSN 1523-6714
    
                                       2014 NV65
    
    Additional Observations:
         K14N65V KC2014 06 28.59981 22 32 58.733-21 51 34.15         22.8 GVEX127F51
         K14N65V KC2014 07 06.53458 22 32 36.327-21 57 51.41         22.3 GVEX127F51
         K14N65V  C2014 07 29.50003 22 30 42.121-22 18 10.63         22.4 GVEX127F51
         K14N65V  C2014 07 29.51150 22 30 42.023-22 18 10.99         23.4 GVEX127F51
         K14N65V  C2014 07 29.52296 22 30 41.962-22 18 11.52         22.7 GVEX127F51
         K14N65V  C2014 07 29.53442 22 30 41.889-22 18 11.86         22.3 GVEX127F51
         K14N65V KC2014 09 11.38234 22 25 14.739-22 52 40.23         22.1 GVEX127F51
         K14N65V KC2015 07 24.50693 22 50 44.549-20 40 29.94         23.0 GVEX127F51
         K14N65V  C2015 08 10.46952 22 49 02.410-20 56 06.65         22.2 GVEX127F51
         K14N65V  C2015 08 10.48011 22 49 02.335-20 56 06.95         21.5 GVEX127F51
         K14N65V  C2015 08 10.48139 22 49 02.320-20 56 07.26         22.7 GVEX127F51
         K14N65V  C2015 08 10.49201 22 49 02.237-20 56 07.76         22.6 GVEX127F51
         K14N65V  C2015 08 10.49329 22 49 02.243-20 56 07.88         22.0 GVEX127F51
         K14N65V  C2015 08 10.50391 22 49 02.172-20 56 08.18         22.7 GVEX127F51
         K14N65V  C2015 08 10.50520 22 49 02.163-20 56 08.44         22.6 GVEX127F51
         K14N65V  C2015 08 11.47203 22 48 55.536-20 57 01.69         22.4 GVEX127F51
         K14N65V  C2015 08 11.47332 22 48 55.501-20 57 01.53         21.9 GVEX127F51
         K14N65V  C2015 08 11.48394 22 48 55.442-20 57 01.73         22.3 GVEX127F51
         K14N65V  C2015 08 11.48524 22 48 55.437-20 57 02.47         22.4 GVEX127F51
         K14N65V  C2015 08 11.49588 22 48 55.358-20 57 02.62         22.6 GVEX127F51
         K14N65V  C2015 08 11.49716 22 48 55.363-20 57 02.44         22.5 GVEX127F51
         K14N65V  C2015 08 11.50774 22 48 55.268-20 57 03.26         22.8 GVEX127F51
         K14N65V  C2015 08 11.50903 22 48 55.257-20 57 03.70         22.0 GVEX127F51
         K14N65V  C2015 08 12.46558 22 48 48.640-20 57 55.61         22.6 GVEX127F51
         K14N65V  C2015 08 12.46687 22 48 48.632-20 57 55.79         23.1 GVEX127F51
         K14N65V  C2015 08 12.47749 22 48 48.558-20 57 56.25         22.5 GVEX127F51
         K14N65V  C2015 08 12.47877 22 48 48.532-20 57 56.50         23.3 GVEX127F51
         K14N65V  C2015 08 12.48940 22 48 48.464-20 57 56.80         22.7 GVEX127F51
         K14N65V  C2015 08 12.49068 22 48 48.465-20 57 57.26         22.4 GVEX127F51
         K14N65V  C2015 08 12.50132 22 48 48.370-20 57 57.74         22.0 GVEX127F51
         K14N65V  C2015 08 12.50261 22 48 48.365-20 57 58.03         22.4 GVEX127F51
         K14N65V KC2016 07 30.55581 23 09 13.390-19 06 09.38         22.5 GVEX127F51
         K14N65V KC2016 08 10.48834 23 08 09.509-19 16 18.42         22.4 GVEX127F51
         K14N65V KC2016 08 26.48748 23 06 17.967-19 30 43.62         22.2 GVEX127F51
         K14N65V KC2016 09 25.40048 23 02 32.745-19 51 30.85         22.2 GVEX127F51
         K14N65V KC2016 09 30.40139 23 01 57.989-19 53 42.71         22.1 GVEX127F51
         K14N65V KC2017 09 21.44600 23 21 51.388-18 04 04.77         22.0 GVEX127F51
    
    Observer details:
    F51 Pan-STARRS 1, Haleakala.  Observers J. Bulger, K. Chambers, B. Gibson,
        T. Goggia, T. Lowe, E. Magnier, N. Primak, A. Schultz, J. Thiel,
        S. Watters, M. Willman.  Measurers S. Chastel, M. Huber, R. Jedicke,
        R. Wainscoat, R. Weryk.  1.8-m Ritchey-Chretien + CCD.
    
    First and last observations above in comparison with prediction:
    Residuals in seconds of arc, reference and Delta-T
    140628 F51  0.3+  0.2-    170921 F51 30.1+ 16.3+    MPO419479    +30 day
    
    Orbital elements:
    2014 NV65
    Epoch 2019 Apr. 27.0 TT = JDT 2458600.5                 MPC
    M   1.14677              (2000.0)            P               Q
    n   0.00080339     Peri.  253.18252     +0.87849974     +0.42857530
    a 114.5998248      Node    81.02087     -0.31472598     +0.85160279
    e   0.8062973      Incl.   12.34014     -0.35942423     +0.30182098
    P  1230            H    9.1           G   0.15           U   0
    Residuals in seconds of arc
    140628 F51  0.1+  0.0     140918 F51  0.1+  0.1-    150811 F51  0.1-  0.2+
    140706 F51  0.3+  0.2+    140921 W84  0.0   0.0     150811 F51  0.1-  0.2-
    140708 F51  0.2-  0.2+    140921 W84  0.1+  0.0     150812 F51  0.1+  0.1+
    140708 F51  0.2-  0.0     140921 W84  0.1+  0.0     150812 F51  0.1+  0.0
    140708 F51  0.2-  0.1+    150724 F51  0.0   0.1-    150812 F51  0.1+  0.1+
    140729 F51  0.3+  0.5-    150810 F51  0.0   0.1-    150812 F51  0.1-  0.1-
    140729 F51  0.0   0.2-    150810 F51  0.0   0.2+    150812 F51  0.0   0.2+
    140729 F51  0.2+  0.1-    150810 F51  0.1-  0.1-    150812 F51  0.1+  0.2-
    140729 F51  0.2+  0.2+    150810 F51  0.2-  0.0     150812 F51  0.1-  0.1-
    140730 F51  0.0   0.2+    150810 F51  0.0   0.0     150812 F51  0.1-  0.3-
    140730 F51  0.3-  0.1+    150810 F51  0.1+  0.3+    160730 F51  0.1+  0.2+
    140730 F51  0.1-  0.1+    150810 F51  0.1+  0.1+    160810 F51  0.0   0.2-
    140828 F51  0.2-  0.1+    150811 F51  0.1+  0.2-    160826 F51  0.1-  0.3-
    140828 F51  0.1+  0.1-    150811 F51  0.2-  0.0     160925 F51  0.0   0.3-
    140828 F51  0.4-  0.1+    150811 F51  0.0   0.4+    160930 F51  0.0   0.5+
    140911 F51  0.2-  0.3-    150811 F51  0.0   0.3-    170921 F51  0.0   0.0
    140918 F51  0.1+  0.0     150811 F51  0.0   0.1+
    140918 F51  0.2+  0.1-    150811 F51  0.2+  0.4+
    
    Ephemeris:
    2014 NV65                a,e,i = 114.60, 0.81, 12                q = 22.198
    Date    TT    R. A. (2000) Decl.     Delta      r     Elong.  Phase     V
    2018 11 15    23 35 02.3 -16 25 05  22.1489 22.5806   114.7     2.3    22.9
    ...
    2018 11 30    23 34 46.0 -16 17 52  22.3978 22.5896   100.0     2.5    22.9
    ...
    2018 12 08    23 34 52.9 -16 12 13  22.5366 22.5945    92.1     2.5    22.9
    ...
    2018 12 14    23 35 05.4 -16 07 14  22.6413 22.5981    86.2     2.5    22.9
    2018 12 15    23 35 08.1 -16 06 20  22.6587 22.5987    85.3     2.5    22.9
    2018 12 16    23 35 10.9 -16 05 25  22.6761 22.5993    84.3     2.5    22.9
    ...
    2018 12 22    23 35 31.7 -15 59 38  22.7797 22.6030    78.4     2.4    22.9
    ...
    2018 12 30    23 36 08.7 -15 51 05  22.9143 22.6079    70.7     2.4    22.9
    ...
    2019 01 14    23 37 45.5 -15 32 55  23.1485 22.6173    56.3     2.1    22.9
    
    A. U. Tomatic                (C) Copyright 2018 MPC           M.P.E.C. 2018-X127
    

    Read MPEC 2018-X126 Read MPEC 2018-X128


    MPEC number:

    Enter an MPEC number in one of the following forms:

    • 1997-B01 (the full form)
    • J97B01 (the packed version of the full form)
    • B01 (the abbreviated form)